{"data":{"norad_id":55789,"epoch":"2026-05-25T00:55:13.173024Z","epoch_age_seconds":75733,"freshness":"FRESH","line1":"1 55789U 23028BA  26145.03834691 -.00000285  00000+0 -16104-4 0  9993","line2":"2 55789  69.9999  11.9076 0002600 271.3374  88.7487 14.98341573178469","mean_motion":14.98341573,"eccentricity":0.00026,"inclination_deg":69.9999,"raan_deg":11.9076,"arg_perigee_deg":271.3374,"mean_anomaly_deg":88.7487,"bstar":-1.6104e-5,"rev_number":17846,"period_min":96.106256807439,"perigee_km":570.21306178025,"apogee_km":573.82714347362,"semimajor_km":6950.1571026269,"source":"CELESTRAK","updated_at":"2026-05-25T13:38:17.888095Z"}}